GALAXY 3C (G-3C) (27445 NORAD) Tracking and Keplerian Element Data

This shows tracking and keplerian element data for the satellite.

Feedback or suggestion? Click here.




ElementValue
Catalog27445
NameGALAXY 3C (G-3C)
Epoch Orbit4149
Epoch Day34.59332166
Epoch Year2025
RAAN84.4922
Inclination2.4501
Eccentricity0.0002566
Argument of Perigee59.55
Mean Anonmoly108.6922
Mean Motion1.0027034
Decay Rate-1.48E-06
L11 27445U 02030A 25034.59332166 -.00000148 00000+0 00000+0 0 9998
L22 27445 2.4501 84.4922 0002566 59.5500 108.6922 1.00270340 41491



Live tracking and technical data element details for GALAXY 3C (G-3C) (NORAD 27445). GALAXY 3C (G-3C) can be tracked NOW for your location showing map with azimuth and elevation plus other details from your city location.







IsCatalogInMostPopularTable: catalog: 27445, numindb: 329
Update: records affected: 1



GetName: 27445 GALAXY 3C (G-3C)

Hit Count: updated at: Thu, 22 May 2025 03:25:25 GMT